Change the Weather History Date:

Wednesday, November 7, 2012

  Actual Average Record
Temperature  
Mean Temperature 40 °F 34 °F  
Max Temperature 56 °F 45 °F 79 °F (1999)
Min Temperature 23 °F 23 °F -15 °F (1991)
Degree Days  
Heating Degree Days 25 31  
Month to date heating degree days 206 207  
Since 1 July heating degree days 1121 1119  
Cooling Degree Days 0 0  
Month to date cooling degree days 0 0  
Year to date cooling degree days 599 520  
Moisture  
Dew Point 28 °F    
Average Humidity 66    
Maximum Humidity 96    
Minimum Humidity 35    
Precipitation  
Precipitation 0.00 in 0.03 in 1.13 in (1874)
Month to date precipitation 0.25 0.20  
Year to date precipitation 13.45 16.85  
Snow  
Snow 0.00 in 0.20 in 9.00 in (1986)
Month to date snowfall 1.4 1.6  
Since 1 July snowfall 1.4 4.0  
Since 1 September snowfall 1.4 4.0  
Snow Depth 0.00 in    
Sea Level Pressure  
Sea Level Pressure 29.91 in    
Wind  
Wind Speed 9 mph (SSE)    
Max Wind Speed 23 mph    
Max Gust Speed 29 mph    
Visibility 10 miles    
Events      
T = Trace of Precipitation, MM = Missing Value Source: NWS Daily Summary

Daily Weather History Graph

Daily Weather History Graph

Search for Another Location

Airport or City:

Trip Planner

Search our weather history database for the weather conditions in past years. The results will help you decide how hot, cold, wet, or windy it might be!

Date:

Astronomy

Nov. 07, 2012 Rise Set
Actual Time 7:34 AM CST 5:18 PM CST
Civil Twilight 7:02 AM CST 5:50 PM CST
Nautical Twilight 6:26 AM CST 6:26 PM CST
Astronomical Twilight 5:50 AM CST 7:01 PM CST
Moon 12:05 AM CST (11/7) 1:51 PM CST (11/7)
Length of Visible Light 10h 47m
Length of Day
9h 43m
Last Quarter, 43% of the Moon is Illuminated
Nov 7
Last Quarter
Nov 13
New
Nov 20
First Quarter
Nov 28
Full
Dec 6
Last Quarter

Hourly Weather History & Observations

Time (CST) Temp. Windchill Dew Point Humidity Pressure Visibility Wind Dir Wind Speed Gust Speed Precip Events Conditions
12:52 AM 27.0 °F - 25.0 °F 92% 30.13 in 10.0 mi Calm Calm - N/A   Clear
1:52 AM 26.1 °F - 23.0 °F 88% 30.13 in 10.0 mi Calm Calm - N/A   Clear
2:52 AM 23.0 °F - 21.9 °F 96% 30.12 in 10.0 mi Calm Calm - N/A   Clear
3:52 AM 27.0 °F 21.6 °F 25.0 °F 92% 30.09 in 10.0 mi East 4.6 mph - N/A   Overcast
4:52 AM 28.9 °F 23.9 °F 27.0 °F 92% 30.08 in 10.0 mi East 4.6 mph - N/A   Overcast
5:52 AM 30.0 °F 26.5 °F 27.0 °F 88% 30.07 in 10.0 mi SSE 3.5 mph - N/A   Overcast
6:52 AM 28.9 °F 22.8 °F 27.0 °F 92% 30.06 in 10.0 mi ESE 5.8 mph - N/A   Partly Cloudy
7:52 AM 30.9 °F 24.3 °F 28.0 °F 89% 30.05 in 10.0 mi ESE 6.9 mph - N/A   Scattered Clouds
8:52 AM 33.1 °F 25.5 °F 28.9 °F 85% 30.03 in 10.0 mi SE 9.2 mph - N/A   Partly Cloudy
9:52 AM 39.0 °F 32.3 °F 30.9 °F 73% 30.00 in 10.0 mi SSE 10.4 mph - N/A   Clear
10:52 AM 44.1 °F 36.5 °F 30.9 °F 60% 29.97 in 10.0 mi SSE 17.3 mph - N/A   Clear
11:52 AM 48.9 °F - 30.0 °F 48% 29.93 in 10.0 mi SSE 17.3 mph - N/A   Clear
12:52 PM 51.1 °F - 28.9 °F 43% 29.87 in 10.0 mi SSE 15.0 mph 24.2 mph N/A   Clear
1:52 PM 53.1 °F - 28.9 °F 40% 29.83 in 10.0 mi South 19.6 mph - N/A   Scattered Clouds
2:52 PM 55.0 °F - 28.9 °F 37% 29.80 in 10.0 mi South 16.1 mph - N/A   Clear
3:52 PM 55.9 °F - 28.9 °F 36% 29.77 in 10.0 mi South 16.1 mph 23.0 mph N/A   Clear
4:52 PM 55.0 °F - 28.0 °F 35% 29.75 in 10.0 mi SSE 12.7 mph - N/A   Clear
5:52 PM 54.0 °F - 28.9 °F 38% 29.75 in 10.0 mi Variable 5.8 mph - N/A   Clear
6:52 PM 53.1 °F - 30.0 °F 41% 29.76 in 10.0 mi SSE 9.2 mph - N/A   Clear
7:52 PM 53.1 °F - 28.9 °F 40% 29.74 in 10.0 mi South 13.8 mph - N/A   Clear
8:52 PM 46.9 °F - 30.9 °F 54% 29.75 in 10.0 mi SE 10.4 mph - N/A   Clear
9:52 PM 42.1 °F - 30.0 °F 62% 29.75 in 10.0 mi Calm Calm - N/A   Clear
10:52 PM 39.9 °F - 30.0 °F 68% 29.75 in 10.0 mi Calm Calm - N/A   Clear
11:52 PM 43.0 °F 39.5 °F 30.0 °F 60% 29.78 in 10.0 mi WSW 5.8 mph - N/A   Clear